Weather Service Report


815 
ASUS45 KABQ 210810
RWRNM 
NEW MEXICO REGIONAL WEATHER ROUNDUP
NATIONAL WEATHER SERVICE ALBUQUERQUE NM
100 AM MST TUE NOV 21 2017

NOTE: "FAIR" MEANS FEW OR NO CLOUDS BELOW 12,000 FEET AGL WITH NO
       SIGNIFICANT WEATHER OR OBSTRUCTIONS TO VISION.

      THIS PRODUCT IS RELEASED AS TWO VERSIONS.  ONE VERSION NEAR
      THE TOP OF THE HOUR CONTAINING PRELIMINARY DATA FROM ALBUQUERQUE
      AND OTHER STATIONS.  A FINAL VERSION WITH ADDITIONAL DATA IS 
      ISSUED ABOUT 10 MINUTES AFTER THE HOUR.
 
NMZ501-503-504-510>518-210900-
NORTHWEST PLATEAU/NORTHCENTRAL MOUNTAINS
  
CITY           SKY/WX    TMP DP  RH WIND       PRES   REMARKS
FARMINGTON     FAIR      30  10  43 CALM      30.16F                  
LOS ALAMOS     FAIR      39  -1  18 NW3       30.14R                  
SANTA FE       FAIR      44  -3  14 N15       30.09R                  
TAOS           FAIR      31   4  31 NE3       30.16S                  
ANGEL FIRE     FAIR      37   0  20 CALM      30.15R                  

$$
NMZ402-403-502-505>509-210900-
WESTCENTRAL MOUNTAINS/SOUTHWEST MOUNTAINS
  
CITY           SKY/WX    TMP DP  RH WIND       PRES   REMARKS
GALLUP         FAIR      24   6  46 E5        30.20F WCI  18          
GRANTS         FAIR      31   0  26 NW16      30.20S WCI  20          
SILVER CITY    FAIR      51  14  23 NW15      30.13F                  

$$
NMZ407-409-411-412-210900-
SOUTHERN DESERTS
  
CITY           SKY/WX    TMP DP  RH WIND       PRES   REMARKS
DEMING         FAIR      48  16  27 W9        30.09F                  
LAS CRUCES     FAIR      47  16  28 W10       30.07F                  
HOLLOMAN AFB   FAIR      39  11  32 CALM      30.07F                  
ALAMOGORDO     FAIR      39  10  30 E6        30.05F WCI  35          
T OR C         FAIR      54  -4   9 N7        30.08S                  

$$
NMZ519>523-210900-
CENTRAL VALLEYS/CENTRAL HIGHLANDS
  
CITY           SKY/WX    TMP DP  RH WIND       PRES   REMARKS
ALBUQUERQUE    MOCLDY    45   1  16 N6        30.11F                  
DOUBLE EAGLE   FAIR      40   2  20 NW10      30.12S WCI  33          
MORIARTY ARPT  FAIR      52  -4  10 N17G28    30.08S                  
CLINES CORNERS FAIR      39  -7  14 NW18      30.07F WCI  30          
BELEN          FAIR      38   5  25 NW3       30.11S                  
SOCORRO        FAIR      37   7  27 N7        30.11R WCI  32          

$$
NMZ524>526-539-540-210900-
SOUTHCENTRAL MOUNTAINS
  
CITY           SKY/WX    TMP DP  RH WIND       PRES   REMARKS
RUIDOSO        FAIR      54  -2  10 NW25G37   30.07F                  

$$
NMZ527>531-210900-
NORTHEAST HIGHLANDS/NORTHEAST PLAINS
  
CITY           SKY/WX    TMP DP  RH WIND       PRES   REMARKS
LAS VEGAS      FAIR      43   4  19 NE8       29.99R                  
RATON          FAIR      40  13  33 NE8       29.97R WCI  34          
CLAYTON        FAIR      51  11  20 N12       29.88R                  

$$
NMZ532>537-210900-
EASTCENTRAL PLAINS
  
CITY           SKY/WX    TMP DP  RH WIND       PRES   REMARKS
SANTA ROSA     FAIR      55  -4   9 W13       29.90F                  
TUCUMCARI      FAIR      47   4  17 W7        29.84S                  
CANNON AFB     FAIR      49   2  14 W14       29.86F                  
CLOVIS AIRPORT FAIR      45   6  20 W13       29.85S                  

$$
NMZ028-029-538-210900-
SOUTHEAST PLAINS
  
CITY           SKY/WX    TMP DP  RH WIND       PRES   REMARKS
ROSWELL        FAIR      40  17  39 SW6       29.88F                  
ARTESIA        FAIR      54  19  26 SW14      29.90F                  
CARLSBAD       FAIR      62  20  19 W16       29.88F                  
HOBBS          FAIR      50  16  25 NW13      29.88F                  


$$
  

Return to Home page


Western Regional Climate Center, wrcc@dri.edu